STARLINK-1612 (46164 NORAD) Tracking and Keplerian Element Data

This shows tracking and keplerian element data for the satellite.

Feedback or suggestion? Click here.




ElementValue
Catalog46164
NameSTARLINK-1612
Epoch Orbit1643
Epoch Day332.16667824
Epoch Year2020
RAAN306.8006
Inclination52.999
Eccentricity0.0003772
Argument of Perigee10.4754
Mean Anonmoly126.2343
Mean Motion15.62875622
Decay Rate-0.00231059
L11 46164U 20057AZ 20332.16667824 -.00231059 00000-0 -25761-2 0 9990
L22 46164 52.9990 306.8006 0003772 10.4754 126.2343 15.62875622 16439

Live tracking and technical data element details for STARLINK-1612 (NORAD 46164). STARLINK-1612 can be tracked NOW for your location showing map with azimuth and elevation plus other details from your city location.

Track the satellite on the map from your city or location and see movement details for azimuth, elevation, latitude, longitude, range, height, and movement on the map or in text.







IsCatalogInMostPopularTable: catalog: 46164, numindb: 12
Update: records affected: 1



GetName: 46164 STARLINK-1612

Hit Count: updated at: Fri, 27 Nov 2020 14:52:50 GMT